星链-37949(STARLINK-37949)

导读

STARLINK-37949(NORAD ID 69671)是美国太空探索技术公司(SpaceX)星链低轨互联网星座组网卫星,属美国所有,运行于近地轨道(LEO),主要用于为全球提供高速低延迟宽带互联网接入服务,支撑星链系统全球无缝通信网络覆盖。该卫星为标准量产型星链小卫星平台,目前处于在轨运行状态,未公开异常通报,后续将按星链系统规划持续提供通信中继服务,参与星座组网扩容。

基本信息
目录编号:
69671
目录名称:
STARLINK-37949
国际标识:
2026-143Y
轨道中心:
EARTH
卫星名称:
星链-37949
卫星全名:
星链-37949(STARLINK-37949)
卫星状态:
在轨 (已飞行75 天)
发射日期:
2026-06-21 UTC
国别 :
美国 (US)
星等 :
--
轨道信息
数据来源 国际轨道数据 AOE轨道数据
星历时间 2026-09-04T10:40:54+0800
8小时前
查看轨道信息
2026-08-29T00:00:00+0800
6天前
查看轨道信息
半长轴 6843.661km 6843.718km
偏心率 0.000169 0.0000945
轨道倾角 97.284° 97.282°
近地点辐角 96.327° 90.640°
升交点赤经 290.575° 284.224°
平近点角 263.816° 353.366°
近地点 464.367km 464.934km
远地点 466.681km 466.228km
周期 93.906分钟 93.907分钟
每日圈数 15.334515 15.334325
详细信息
固有亮度:
5
最大亮度:
2.5
卫星平台:
Starlink V1.0
覆盖范围:
全球
运营商:
太空探索技术公司
运营商所在国:
美国
制造商(研发单位):
太空探索技术公司
制造商所在国:
美国
使用方式:
暂无
卫星简介
Starlink 计划是 SpaceX 推出的全球卫星互联网项目,通过发射低轨道卫星,为全球尤其是偏远地区提供高速、低延迟的互联网服务。自 2019 年起,Starlink 已部署数千颗卫星,旨在缩小全球数字鸿沟,推动互联网普及。该项目还为军事、航空等行业提供通信支持,带来广泛经济效益。
2D轨道图
3D轨道图
轨道高度分析图
轨道倾角分析图
轨道综合分析图
查看轨道综合分析图